When you browse on this site, cookies collect data to enhance your experience and personalize the content and advertising you see.
Visit our Privacy Policy to learn more. By continuing to use the site, you agree to this use of cookies and data.
  • In Czech Republic
  • List of Countries
  • For 7 days
  • Water Temperature
  • Satellite Maps
  • Weather Map
  • Weather Widgets
  • user-avatar
    Login

    Hourly Weather Niziny

    Today, 16 February, Saturday

    Time Temperature Precipitation Wind Pressure Humidity
    00:00 +3°C° 0 mm 2 mps 755 mmHg 90%
    01:00 +3°C° 0 mm 2 mps 755 mmHg 91%
    02:00 +2°C° 0 mm 2 mps 754 mmHg 94%
    03:00 +2°C° 0 mm 2 mps 754 mmHg 93%
    04:00 +2°C° 0 mm 2 mps 754 mmHg 93%
    05:00 +2°C° 0 mm 2 mps 754 mmHg 93%
    06:00 +2°C° 0 mm 2 mps 754 mmHg 93%
    07:00 +2°C° 0 mm 2 mps 754 mmHg 92%
    08:00 +2°C° 0 mm 2 mps 754 mmHg 92%
    09:00 +3°C° 0 mm 2 mps 754 mmHg 88%
    10:00 +4°C° 0 mm 2 mps 754 mmHg 83%
    11:00 +4°C° 0 mm 3 mps 754 mmHg 79%
    12:00 +5°C° 0 mm 3 mps 754 mmHg 74%
    13:00 +7°C° 0 mm 3 mps 754 mmHg 70%
    14:00 +9°C° 0 mm 3 mps 753 mmHg 66%
    15:00 +8°C° 0 mm 2 mps 753 mmHg 68%
    16:00 +8°C° 0 mm 2 mps 753 mmHg 70%
    17:00 +8°C° 0 mm 2 mps 753 mmHg 72%
    18:00 +7°C° 0 mm 2 mps 753 mmHg 76%
    19:00 +5°C° 0 mm 3 mps 753 mmHg 81%
    20:00 +4°C° 0 mm 3 mps 753 mmHg 85%
    21:00 +3°C° 0 mm 3 mps 752 mmHg 85%
    22:00 +3°C° 0 mm 3 mps 752 mmHg 84%
    23:00 +3°C° 0 mm 3 mps 752 mmHg 84%

    Tomorrow, 17 February, Sunday

    Time Temperature Precipitation Wind Pressure Humidity
    00:00 +3°C° 0 mm 3 mps 752 mmHg 84%
    01:00 +1°C° 0 mm 4 mps 752 mmHg 84%
    02:00 +1°C° 0 mm 4 mps 752 mmHg 85%
    03:00 +1°C° 0 mm 4 mps 752 mmHg 85%
    04:00 +1°C° 0 mm 4 mps 751 mmHg 85%
    05:00 +1°C° 0 mm 4 mps 751 mmHg 85%
    06:00 0°C° 0 mm 4 mps 751 mmHg 85%
    07:00 0°C° 0 mm 4 mps 751 mmHg 85%
    08:00 0°C° 0 mm 4 mps 751 mmHg 85%
    09:00 +3°C° 0 mm 4 mps 751 mmHg 77%
    10:00 +5°C° 0 mm 5 mps 751 mmHg 70%
    11:00 +6°C° 0 mm 5 mps 751 mmHg 63%
    12:00 +7°C° 0 mm 5 mps 751 mmHg 59%
    13:00 +8°C° 0 mm 5 mps 751 mmHg 55%
    14:00 +10°C° 0 mm 5 mps 750 mmHg 51%
    15:00 +9°C° 0 mm 5 mps 750 mmHg 54%
    16:00 +8°C° 0 mm 4 mps 750 mmHg 57%
    17:00 +8°C° 0 mm 4 mps 750 mmHg 60%
    18:00 +7°C° 0 mm 4 mps 750 mmHg 66%
    19:00 +5°C° 0 mm 3 mps 750 mmHg 71%
    20:00 +4°C° 0 mm 3 mps 750 mmHg 77%
    21:00 +3°C° 0 mm 3 mps 750 mmHg 79%
    22:00 +3°C° 0 mm 3 mps 750 mmHg 80%
    23:00 +2°C° 0 mm 3 mps 750 mmHg 81%

    Day after tomorrow, 18 February, Monday

    Time Temperature Precipitation Wind Pressure Humidity
    00:00 +2°C° 0 mm 3 mps 750 mmHg 83%
    01:00 +2°C° 0 mm 3 mps 750 mmHg 84%
    02:00 +2°C° 0 mm 2 mps 750 mmHg 85%
    03:00 +2°C° 0 mm 2 mps 750 mmHg 85%
    04:00 +2°C° 0 mm 2 mps 750 mmHg 86%
    05:00 +2°C° 0 mm 2 mps 750 mmHg 87%
    06:00 +1°C° 0 mm 2 mps 750 mmHg 87%
    07:00 +2°C° 0 mm 1 mps 750 mmHg 87%
    08:00 +2°C° 0 mm 1 mps 750 mmHg 88%
    09:00 +4°C° 0 mm 1 mps 750 mmHg 82%
    10:00 +4°C° 0 mm 0 mps 750 mmHg 77%
    11:00 +5°C° 0 mm 0 mps 750 mmHg 71%
    12:00 +6°C° 0 mm 0 mps 750 mmHg 69%
    13:00 +7°C° 0 mm 0 mps 750 mmHg 66%
    14:00 +8°C° 0 mm 0 mps 750 mmHg 64%
    15:00 +9°C° 0 mm 1 mps 750 mmHg 66%
    16:00 +8°C° 0 mm 1 mps 750 mmHg 69%
    17:00 +7°C° 0 mm 2 mps 749 mmHg 71%
    18:00 +6°C° 0 mm 2 mps 749 mmHg 77%
    19:00 +5°C° 0 mm 2 mps 749 mmHg 83%
    20:00 +4°C° 0 mm 2 mps 749 mmHg 89%
    21:00 +3°C° 0 mm 2 mps 749 mmHg 90%
    22:00 +3°C° 0 mm 2 mps 749 mmHg 91%
    23:00 +3°C° 0 mm 2 mps 749 mmHg 92%

    19 February, Tuesday

    Time Temperature Precipitation Wind Pressure Humidity
    00:00 +2°C° 0 mm 2 mps 749 mmHg 92%
    01:00 +2°C° 0 mm 2 mps 749 mmHg 92%
    02:00 +2°C° 0 mm 2 mps 749 mmHg 92%
    03:00 +2°C° 0 mm 2 mps 749 mmHg 91%
    04:00 +1°C° 0 mm 2 mps 748 mmHg 90%
    05:00 +1°C° 0 mm 2 mps 748 mmHg 89%
    06:00 +1°C° 0 mm 2 mps 748 mmHg 88%
    07:00 +1°C° 0 mm 2 mps 748 mmHg 86%
    08:00 +1°C° 0 mm 2 mps 747 mmHg 85%
    09:00 +3°C° 0 mm 2 mps 747 mmHg 78%
    10:00 +5°C° 0 mm 2 mps 747 mmHg 70%
    11:00 +7°C° 0 mm 2 mps 747 mmHg 63%
    12:00 +8°C° 0 mm 3 mps 747 mmHg 59%
    13:00 +9°C° 0 mm 3 mps 746 mmHg 56%
    14:00 +10°C° 0 mm 4 mps 746 mmHg 52%
    15:00 +10°C° 0 mm 4 mps 746 mmHg 56%
    16:00 +9°C° 0 mm 3 mps 745 mmHg 59%
    17:00 +8°C° 0 mm 3 mps 745 mmHg 63%
    18:00 +6°C° 0 mm 4 mps 745 mmHg 67%
    19:00 +5°C° 0 mm 4 mps 745 mmHg 72%
    20:00 +4°C° 0 mm 4 mps 746 mmHg 77%
    21:00 +4°C° 0 mm 4 mps 746 mmHg 78%
    22:00 +4°C° 0 mm 4 mps 746 mmHg 78%
    23:00 +4°C° 0 mm 4 mps 746 mmHg 79%

    20 February, Wednesday

    Time Temperature Precipitation Wind Pressure Humidity
    00:00 +4°C° 0 mm 4 mps 746 mmHg 79%
    01:00 +4°C° 0 mm 4 mps 746 mmHg 79%
    02:00 +4°C° 0 mm 4 mps 746 mmHg 79%
    03:00 +4°C° 0.1 mm 4 mps 746 mmHg 81%
    04:00 +4°C° 0.1 mm 4 mps 746 mmHg 82%
    05:00 +4°C° 0.1 mm 4 mps 746 mmHg 83%
    06:00 +3°C° 0 mm 4 mps 746 mmHg 85%
    07:00 +3°C° 0 mm 3 mps 746 mmHg 87%
    08:00 +3°C° 0 mm 3 mps 746 mmHg 89%
    09:00 +4°C° 0 mm 4 mps 747 mmHg 82%
    10:00 +5°C° 0 mm 4 mps 747 mmHg 74%
    11:00 +6°C° 0 mm 5 mps 747 mmHg 66%
    12:00 +7°C° 0 mm 5 mps 747 mmHg 63%
    13:00 +7°C° 0 mm 6 mps 746 mmHg 60%
    14:00 +8°C° 0 mm 6 mps 746 mmHg 57%
    15:00 +8°C° 0 mm 6 mps 746 mmHg 57%
    16:00 +7°C° 0 mm 5 mps 746 mmHg 58%
    17:00 +7°C° 0 mm 5 mps 746 mmHg 58%
    18:00 +6°C° 0 mm 4 mps 746 mmHg 62%
    19:00 +5°C° 0 mm 4 mps 747 mmHg 66%
    20:00 +5°C° 0 mm 3 mps 747 mmHg 70%
    21:00 +4°C° 0 mm 3 mps 747 mmHg 72%
    22:00 +4°C° 0 mm 3 mps 747 mmHg 74%
    23:00 +4°C° 0 mm 4 mps 747 mmHg 75%

    21 February, Thursday

    Time Temperature Precipitation Wind Pressure Humidity
    00:00 +3°C° 0 mm 4 mps 747 mmHg 77%
    01:00 +3°C° 0 mm 4 mps 747 mmHg 78%
    02:00 +3°C° 0 mm 4 mps 747 mmHg 80%
    03:00 +3°C° 0 mm 4 mps 747 mmHg 80%
    04:00 +3°C° 0 mm 4 mps 747 mmHg 80%
    05:00 +4°C° 0 mm 4 mps 747 mmHg 80%
    06:00 +4°C° 0 mm 4 mps 747 mmHg 80%
    07:00 +4°C° 0 mm 4 mps 747 mmHg 79%
    08:00 +3°C° 0 mm 5 mps 747 mmHg 78%
    09:00 +5°C° 0.1 mm 5 mps 747 mmHg 77%
    10:00 +5°C° 0.1 mm 5 mps 747 mmHg 75%
    11:00 +5°C° 0.1 mm 6 mps 747 mmHg 74%
    12:00 +5°C° 0.2 mm 6 mps 747 mmHg 75%
    13:00 +5°C° 0.2 mm 6 mps 746 mmHg 77%
    14:00 +5°C° 0.2 mm 6 mps 746 mmHg 79%
    15:00 +5°C° 0.4 mm 6 mps 746 mmHg 81%
    16:00 +5°C° 0.4 mm 6 mps 746 mmHg 82%
    17:00 +6°C° 0.4 mm 5 mps 746 mmHg 84%
    18:00 +6°C° 0.1 mm 5 mps 747 mmHg 84%
    19:00 +6°C° 0.1 mm 5 mps 747 mmHg 83%
    20:00 +6°C° 0.1 mm 5 mps 747 mmHg 83%
    21:00 +5°C° 0.1 mm 5 mps 747 mmHg 85%
    22:00 +5°C° 0.1 mm 5 mps 747 mmHg 86%
    23:00 +5°C° 0.1 mm 4 mps 748 mmHg 88%
    Show more